📊 Raw Sensor Data
Showing records 32551 to 32575 of 84,709 total
| ID | Distance (ft) | Battery V | Battery A | Int Temp (°F) | Int Humid (%) | Ext Temp (°F) | Solar V | RSSI | SNR | Time Stamp |
|---|---|---|---|---|---|---|---|---|---|---|
| 52171 | 15.2 | 4.01 | 0 | 112 | 42 | 97 | 5.20 | -72 | 8 | 09/16/2025 02:45 PM |
| 52170 | 15.2 | 4.01 | 0 | 111 | 41 | 98 | 5.20 | -71 | 7 | 09/16/2025 02:30 PM |
| 52169 | 15.1 | 4.01 | 5 | 108 | 41 | 97 | 5.20 | -72 | 7 | 09/16/2025 02:00 PM |
| 52168 | 15.1 | 4.01 | 5 | 106 | 41 | 96 | 5.20 | -73 | 8 | 09/16/2025 01:45 PM |
| 52167 | 15.1 | 4.11 | 5 | 105 | 41 | 95 | 5.10 | -73 | 8 | 09/16/2025 01:30 PM |
| 52166 | 15.1 | 4.01 | 5 | 103 | 41 | 93 | 5.20 | -71 | 8 | 09/16/2025 01:15 PM |
| 52165 | 15.2 | 4.01 | 0 | 102 | 41 | 93 | 5.10 | -71 | 8 | 09/16/2025 01:00 PM |
| 52164 | 15.1 | 4.01 | 5 | 101 | 41 | 93 | 5.20 | -71 | 8 | 09/16/2025 12:45 PM |
| 52163 | 15.1 | 4.01 | 5 | 99 | 41 | 91 | 5.10 | -71 | 7 | 09/16/2025 12:30 PM |
| 52162 | 15.1 | 4.01 | 0 | 98 | 41 | 91 | 5.10 | -71 | 8 | 09/16/2025 12:15 PM |
| 52161 | 15.1 | 4.01 | 0 | 97 | 41 | 92 | 5.10 | -71 | 8 | 09/16/2025 12:00 PM |
| 52160 | 13.9 | 4.01 | 5 | 95 | 41 | 92 | 5.10 | -71 | 8 | 09/16/2025 11:45 AM |
| 52159 | 15.2 | 4.01 | 5 | 94 | 41 | 92 | 5.10 | -71 | 8 | 09/16/2025 11:30 AM |
| 52158 | 15.1 | 4.01 | 0 | 92 | 40 | 90 | 5.10 | -70 | 8 | 09/16/2025 11:15 AM |
| 52157 | 15.2 | 4.01 | 0 | 89 | 41 | 90 | 5.10 | -70 | 8 | 09/16/2025 11:00 AM |
| 52156 | 15.1 | 4.01 | 5 | 87 | 40 | 86 | 5.10 | -70 | 7 | 09/16/2025 10:45 AM |
| 52155 | 15.1 | 4.01 | 0 | 85 | 40 | 87 | 5.10 | -70 | 8 | 09/16/2025 10:30 AM |
| 52154 | 14.0 | 4.01 | 5 | 83 | 40 | 84 | 5.10 | -70 | 8 | 09/16/2025 10:15 AM |
| 52153 | 14.5 | 4.05 | 5 | 81 | 40 | 85 | 5.10 | -70 | 8 | 09/16/2025 10:00 AM |
| 52152 | 14.0 | 4.01 | 0 | 79 | 40 | 85 | 5.10 | -70 | 8 | 09/16/2025 09:45 AM |
| 52151 | 15.1 | 4.01 | 5 | 76 | 40 | 81 | 5.10 | -69 | 8 | 09/16/2025 09:30 AM |
| 52150 | 15.1 | 4.01 | 5 | 74 | 40 | 81 | 5.10 | -70 | 9 | 09/16/2025 09:15 AM |
| 52149 | 15.1 | 4.00 | 5 | 71 | 40 | 78 | 5.10 | -70 | 8 | 09/16/2025 09:00 AM |
| 52148 | 13.9 | 4.00 | 5 | 69 | 40 | 72 | 5.10 | -71 | 8 | 09/16/2025 08:45 AM |
| 52147 | 13.7 | 4.01 | 5 | 66 | 40 | 72 | 5.10 | -69 | 8 | 09/16/2025 08:30 AM |